| time (UTC) | temp C | wind direction | speed KPH | gust KPH | rain 1hr cm | rain 24hr cm | rain mn cm | humidity % | barometer mb |
| 20260504234719 | 23 | 114 | 0.0 | 0.0 | 0.00 | 0.00 | 0.00 | 46 | 1013.7 |
| 20260504234216 | 23 | 114 | 0.0 | 0.0 | 0.00 | 0.00 | 0.00 | 44 | 1013.6 |
| 20260504233712 | 23 | 115 | 1.6 | 1.6 | 0.00 | 0.00 | 0.00 | 43 | 1013.5 |
| 20260504233208 | 23 | 113 | 0.0 | 0.0 | 0.00 | 0.00 | 0.00 | 44 | 1013.6 |
| 20260504232706 | 23 | 113 | 0.0 | 0.0 | 0.00 | 0.00 | 0.00 | 42 | 1013.5 |
| 20260504232203 | 23 | 123 | 1.6 | 3.2 | 0.00 | 0.00 | 0.00 | 43 | 1013.4 |
| 20260504231659 | 23 | 141 | 1.6 | 3.2 | 0.00 | 0.00 | 0.00 | 43 | 1013.7 |
| 20260504231155 | 23 | 112 | 0.0 | 0.0 | 0.00 | 0.00 | 0.00 | 47 | 1013.6 |
| 20260504230652 | 24 | 111 | 1.6 | 1.6 | 0.00 | 0.00 | 0.00 | 43 | 1013.6 |
| 20260504230151 | 24 | 131 | 0.0 | 0.0 | 0.00 | 0.00 | 0.00 | 43 | 1013.7 |
| 20260504225649 | 24 | 117 | 0.0 | 0.0 | 0.00 | 0.00 | 0.00 | 42 | 1013.8 |
| 20260504225144 | 24 | 123 | 1.6 | 3.2 | 0.00 | 0.00 | 0.00 | 41 | 1013.6 |
| 20260504224642 | 25 | 121 | 0.0 | 1.6 | 0.00 | 0.00 | 0.00 | 42 | 1013.8 |
| 20260504224138 | 25 | 105 | 0.0 | 0.0 | 0.00 | 0.00 | 0.00 | 41 | 1013.7 |
| 20260504223636 | 25 | 112 | 0.0 | 1.6 | 0.00 | 0.00 | 0.00 | 39 | 1013.8 |
| 20260504223131 | 25 | 229 | 3.2 | 4.8 | 0.00 | 0.00 | 0.00 | 40 | 1013.9 |
| 20260504222628 | 25 | 162 | 1.6 | 1.6 | 0.00 | 0.00 | 0.00 | 42 | 1013.9 |
| 20260504222125 | 25 | 133 | 4.8 | 4.8 | 0.00 | 0.00 | 0.00 | 39 | 1013.9 |
| 20260504221623 | 25 | 113 | 1.6 | 1.6 | 0.00 | 0.00 | 0.00 | 39 | 1014.0 |
| 20260504221120 | 25 | 107 | 0.0 | 1.6 | 0.00 | 0.00 | 0.00 | 38 | 1014.0 |
| 20260504220616 | 25 | 155 | 6.4 | 9.7 | 0.00 | 0.00 | 0.00 | 37 | 1013.9 |
| 20260504220114 | 25 | 124 | 1.6 | 1.6 | 0.00 | 0.00 | 0.00 | 38 | 1014.0 |
| 20260504215609 | 26 | 130 | 3.2 | 4.8 | 0.00 | 0.00 | 0.00 | 39 | 1014.0 |
| 20260504215107 | 26 | 95 | 0.0 | 1.6 | 0.00 | 0.00 | 0.00 | 40 | 1013.9 |
| 20260504214603 | 26 | 187 | 6.4 | 8.0 | 0.00 | 0.00 | 0.00 | 38 | 1014.1 |
| 20260504214059 | 26 | 114 | 0.0 | 0.0 | 0.00 | 0.00 | 0.00 | 41 | 1014.0 |
| 20260504213556 | 26 | 105 | 1.6 | 1.6 | 0.00 | 0.00 | 0.00 | 39 | 1013.9 |
| 20260504213053 | 25 | 102 | 1.6 | 1.6 | 0.00 | 0.00 | 0.00 | 39 | 1014.0 |
| 20260504212549 | 25 | 114 | 0.0 | 0.0 | 0.00 | 0.00 | 0.00 | 42 | 1014.1 |
| 20260504212046 | 25 | 141 | 0.0 | 0.0 | 0.00 | 0.00 | 0.00 | 40 | 1014.2 |
| 20260504211543 | 25 | 94 | 0.0 | 1.6 | 0.00 | 0.00 | 0.00 | 39 | 1014.2 |
| 20260504211040 | 25 | 159 | 3.2 | 8.0 | 0.00 | 0.00 | 0.00 | 39 | 1013.9 |
| 20260504210537 | 25 | 133 | 1.6 | 1.6 | 0.00 | 0.00 | 0.00 | 41 | 1014.2 |
| 20260504210034 | 25 | 157 | 3.2 | 3.2 | 0.00 | 0.00 | 0.00 | 39 | 1014.3 |
| 20260504205532 | 25 | 131 | 0.0 | 1.6 | 0.00 | 0.00 | 0.00 | 40 | 1014.2 |
| 20260504205029 | 25 | 112 | 0.0 | 1.6 | 0.00 | 0.00 | 0.00 | 42 | 1014.4 |
| 20260504204527 | 25 | 103 | 1.6 | 3.2 | 0.00 | 0.00 | 0.00 | 43 | 1014.1 |
| 20260504204026 | 26 | 153 | 3.2 | 3.2 | 0.00 | 0.00 | 0.00 | 42 | 1014.2 |
| 20260504203524 | 26 | 149 | 1.6 | 3.2 | 0.00 | 0.00 | 0.00 | 45 | 1014.1 |
| 20260504203021 | 25 | 116 | 3.2 | 3.2 | 0.00 | 0.00 | 0.00 | 42 | 1014.3 |
| 20260504202516 | 26 | 116 | 1.6 | 3.2 | 0.00 | 0.00 | 0.00 | 42 | 1014.2 |
| 20260504202013 | 26 | 150 | 1.6 | 1.6 | 0.00 | 0.00 | 0.00 | 44 | 1014.2 |
| 20260504201510 | 26 | 142 | 3.2 | 3.2 | 0.00 | 0.00 | 0.00 | 42 | 1014.2 |
| 20260504201008 | 26 | 187 | 1.6 | 1.6 | 0.00 | 0.00 | 0.00 | 42 | 1014.6 |
| 20260504200504 | 26 | 140 | 1.6 | 3.2 | 0.00 | 0.00 | 0.00 | 40 | 1014.6 |
| 20260504200001 | 26 | 126 | 1.6 | 3.2 | 0.00 | 0.00 | 0.00 | 40 | 1014.9 |
| 20260504195457 | 25 | 199 | 8.0 | 9.7 | 0.00 | 0.00 | 0.00 | 40 | 1014.6 |
| 20260504194954 | 26 | 118 | 3.2 | 3.2 | 0.00 | 0.00 | 0.00 | 38 | 1014.8 |
| 20260504194450 | 26 | 120 | 1.6 | 1.6 | 0.00 | 0.00 | 0.00 | 41 | 1015.2 |
| 20260504193946 | 25 | 136 | 1.6 | 1.6 | 0.00 | 0.00 | 0.00 | 43 | 1014.9 |
| 20260504193443 | 26 | 111 | 1.6 | 3.2 | 0.00 | 0.00 | 0.00 | 41 | 1015.0 |
| 20260504192942 | 26 | 142 | 0.0 | 1.6 | 0.00 | 0.00 | 0.00 | 39 | 1015.3 |
| 20260504192438 | 26 | 168 | 3.2 | 3.2 | 0.00 | 0.00 | 0.00 | 40 | 1015.3 |
| 20260504191938 | 26 | 94 | 1.6 | 3.2 | 0.00 | 0.00 | 0.00 | 37 | 1015.2 |
| 20260504191435 | 27 | 207 | 3.2 | 3.2 | 0.00 | 0.00 | 0.00 | 39 | 1015.0 |
| 20260504190930 | 27 | 115 | 1.6 | 1.6 | 0.00 | 0.00 | 0.00 | 38 | 1015.2 |
| 20260504190426 | 27 | 112 | 1.6 | 1.6 | 0.00 | 0.00 | 0.00 | 39 | 1015.4 |
| 20260504185923 | 27 | 115 | 1.6 | 1.6 | 0.00 | 0.00 | 0.00 | 38 | 1015.9 |
| 20260504185420 | 27 | 120 | 1.6 | 1.6 | 0.00 | 0.00 | 0.00 | 43 | 1015.8 |
| 20260504184916 | 26 | 117 | 0.0 | 1.6 | 0.00 | 0.00 | 0.00 | 41 | 1015.9 |
| 20260504184412 | 27 | 136 | 0.0 | 0.0 | 0.00 | 0.00 | 0.00 | 43 | 1015.9 |
| 20260504183908 | 26 | 174 | 4.8 | 4.8 | 0.00 | 0.00 | 0.00 | 40 | 1015.9 |
| 20260504183405 | 27 | 120 | 1.6 | 1.6 | 0.00 | 0.00 | 0.00 | 44 | 1016.0 |
| 20260504182903 | 27 | 99 | 1.6 | 1.6 | 0.00 | 0.00 | 0.00 | 44 | 1015.8 |
| 20260504182400 | 26 | 103 | 0.0 | 0.0 | 0.00 | 0.00 | 0.00 | 39 | 1016.3 |
| 20260504181856 | 26 | 90 | 0.0 | 0.0 | 0.00 | 0.00 | 0.00 | 39 | 1016.2 |
| 20260504181354 | 26 | 99 | 0.0 | 0.0 | 0.00 | 0.00 | 0.00 | 40 | 1016.0 |
| 20260504180853 | 26 | 188 | 3.2 | 4.8 | 0.00 | 0.00 | 0.00 | 41 | 1016.3 |
| 20260504180351 | 26 | 150 | 0.0 | 1.6 | 0.00 | 0.00 | 0.00 | 40 | 1016.4 |
| 20260504175849 | 26 | 120 | 1.6 | 3.2 | 0.00 | 0.00 | 0.00 | 40 | 1016.5 |
| 20260504175345 | 26 | 111 | 0.0 | 1.6 | 0.00 | 0.00 | 0.00 | 43 | 1016.6 |
| 20260504174844 | 26 | 107 | 0.0 | 1.6 | 0.00 | 0.00 | 0.00 | 43 | 1016.5 |
| 20260504174341 | 26 | 187 | 1.6 | 3.2 | 0.00 | 0.00 | 0.00 | 44 | 1016.6 |
| 20260504173838 | 26 | 109 | 0.0 | 0.0 | 0.00 | 0.00 | 0.00 | 44 | 1016.5 |
| 20260504173334 | 26 | 129 | 3.2 | 3.2 | 0.00 | 0.00 | 0.00 | 43 | 1016.6 |
| 20260504172831 | 26 | 132 | 1.6 | 3.2 | 0.00 | 0.00 | 0.00 | 45 | 1016.5 |
| 20260504172328 | 26 | 115 | 0.0 | 0.0 | 0.00 | 0.00 | 0.00 | 46 | 1016.8 |
| 20260504171824 | 25 | 103 | 0.0 | 0.0 | 0.00 | 0.00 | 0.00 | 44 | 1016.6 |
| 20260504171321 | 25 | 178 | 1.6 | 3.2 | 0.00 | 0.00 | 0.00 | 47 | 1016.9 |
| 20260504170819 | 25 | 124 | 0.0 | 1.6 | 0.00 | 0.00 | 0.00 | 44 | 1017.1 |
| 20260504170315 | 25 | 105 | 1.6 | 3.2 | 0.00 | 0.00 | 0.00 | 42 | 1017.1 |
| 20260504160233 | 24 | 114 | 0.0 | 0.0 | 0.00 | 0.00 | 0.00 | 47 | 1017.9 |
| 20260504150659 | 21 | 103 | 1.6 | 1.6 | 0.00 | 0.00 | 0.00 | 58 | 1018.1 |
| 20260504150156 | 21 | 96 | 0.0 | 1.6 | 0.00 | 0.00 | 0.00 | 60 | 1018.1 |
| 20260504141124 | 18 | 97 | 0.0 | 0.0 | 0.00 | 0.00 | 0.00 | 65 | 1018.4 |
| 20260504140621 | 18 | 138 | 1.6 | 1.6 | 0.00 | 0.00 | 0.00 | 64 | 1018.4 |
| 20260504140117 | 18 | 108 | 0.0 | 0.0 | 0.00 | 0.00 | 0.00 | 66 | 1018.4 |
| 20260504130545 | 13 | 108 | 0.0 | 0.0 | 0.00 | 0.00 | 0.00 | 88 | 1018.5 |
| 20260504110433 | 5 | 110 | 0.0 | 0.0 | 0.00 | 0.00 | 0.00 | 99 | 1018.0 |
| 20260504100349 | 5 | 109 | 0.0 | 0.0 | 0.00 | 0.00 | 0.00 | 99 | 1017.7 |
| 20260504081742 | 6 | 113 | 0.0 | 0.0 | 0.00 | 0.00 | 0.00 | 99 | 1017.6 |
| 20260504081239 | 6 | 110 | 0.0 | 0.0 | 0.00 | 0.00 | 0.00 | 99 | 1017.6 |
| 20260504080736 | 6 | 110 | 0.0 | 0.0 | 0.00 | 0.00 | 0.00 | 99 | 1017.8 |
| 20260504080232 | 6 | 110 | 0.0 | 0.0 | 0.00 | 0.00 | 0.00 | 99 | 1018.0 |
| 20260504070200 | 6 | 111 | 0.0 | 0.0 | 0.00 | 0.00 | 0.00 | 99 | 1017.9 |
| 20260504060120 | 6 | 110 | 0.0 | 0.0 | 0.00 | 0.00 | 0.00 | 98 | 1018.7 |
| 20260504050548 | 7 | 110 | 0.0 | 0.0 | 0.00 | 0.00 | 0.00 | 98 | 1018.7 |
| 20260504045542 | 7 | 110 | 0.0 | 0.0 | 0.00 | 0.00 | 0.00 | 97 | 1018.9 |
| 20260504045037 | 7 | 108 | 0.0 | 0.0 | 0.00 | 0.00 | 0.00 | 97 | 1018.8 |
| 20260504044535 | 7 | 110 | 0.0 | 0.0 | 0.00 | 0.00 | 0.00 | 97 | 1018.9 |
| 20260504044032 | 8 | 111 | 0.0 | 0.0 | 0.00 | 0.00 | 0.00 | 97 | 1018.9 |
| 20260504043529 | 8 | 112 | 0.0 | 0.0 | 0.00 | 0.00 | 0.00 | 97 | 1018.9 |
| 20260504043026 | 8 | 110 | 0.0 | 0.0 | 0.00 | 0.00 | 0.00 | 97 | 1019.1 |
| 20260504042523 | 8 | 112 | 0.0 | 0.0 | 0.00 | 0.00 | 0.00 | 96 | 1019.1 |
| 20260504042020 | 8 | 110 | 0.0 | 0.0 | 0.00 | 0.00 | 0.00 | 96 | 1019.3 |
| 20260504041516 | 8 | 114 | 0.0 | 0.0 | 0.00 | 0.00 | 0.00 | 96 | 1019.0 |
| 20260504041012 | 8 | 111 | 0.0 | 0.0 | 0.00 | 0.00 | 0.00 | 96 | 1019.0 |
| 20260504040510 | 8 | 110 | 0.0 | 0.0 | 0.00 | 0.00 | 0.00 | 96 | 1019.0 |
| 20260504040006 | 8 | 110 | 0.0 | 0.0 | 0.00 | 0.00 | 0.00 | 95 | 1019.1 |
| 20260504035504 | 8 | 114 | 0.0 | 0.0 | 0.00 | 0.00 | 0.00 | 95 | 1019.3 |
| 20260504034959 | 8 | 110 | 0.0 | 0.0 | 0.00 | 0.00 | 0.00 | 95 | 1019.3 |
| 20260504034457 | 8 | 111 | 0.0 | 0.0 | 0.00 | 0.00 | 0.00 | 95 | 1019.1 |
| 20260504033954 | 8 | 111 | 0.0 | 0.0 | 0.00 | 0.00 | 0.00 | 94 | 1019.5 |
| 20260504033452 | 8 | 111 | 0.0 | 0.0 | 0.00 | 0.00 | 0.00 | 94 | 1019.4 |
| 20260504032949 | 9 | 110 | 0.0 | 0.0 | 0.00 | 0.00 | 0.00 | 94 | 1019.5 |
| 20260504032446 | 9 | 110 | 0.0 | 0.0 | 0.00 | 0.00 | 0.00 | 93 | 1019.3 |
| 20260504031942 | 9 | 110 | 0.0 | 0.0 | 0.00 | 0.00 | 0.00 | 93 | 1019.5 |
| 20260504031439 | 9 | 112 | 0.0 | 0.0 | 0.00 | 0.00 | 0.00 | 93 | 1019.4 |
| 20260504030936 | 10 | 112 | 0.0 | 0.0 | 0.00 | 0.00 | 0.00 | 92 | 1019.4 |
| 20260504030433 | 10 | 113 | 0.0 | 0.0 | 0.00 | 0.00 | 0.00 | 92 | 1019.1 |
| 20260504025929 | 10 | 111 | 0.0 | 0.0 | 0.00 | 0.00 | 0.00 | 92 | 1019.2 |
| 20260504025426 | 10 | 110 | 0.0 | 0.0 | 0.00 | 0.00 | 0.00 | 92 | 1019.0 |
| 20260504024923 | 10 | 110 | 0.0 | 0.0 | 0.00 | 0.00 | 0.00 | 91 | 1019.1 |
| 20260504024420 | 10 | 111 | 0.0 | 0.0 | 0.00 | 0.00 | 0.00 | 91 | 1019.0 |
| 20260504023917 | 10 | 112 | 0.0 | 0.0 | 0.00 | 0.00 | 0.00 | 90 | 1018.8 |
| 20260504023413 | 10 | 111 | 0.0 | 0.0 | 0.00 | 0.00 | 0.00 | 89 | 1019.0 |
| 20260504022909 | 10 | 112 | 0.0 | 0.0 | 0.00 | 0.00 | 0.00 | 89 | 1018.8 |
| 20260504022406 | 10 | 111 | 0.0 | 0.0 | 0.00 | 0.00 | 0.00 | 89 | 1019.0 |
| 20260504021902 | 10 | 111 | 0.0 | 0.0 | 0.00 | 0.00 | 0.00 | 89 | 1018.8 |
| 20260504021400 | 10 | 111 | 0.0 | 0.0 | 0.00 | 0.00 | 0.00 | 88 | 1018.7 |
| 20260504020857 | 11 | 111 | 0.0 | 0.0 | 0.00 | 0.00 | 0.00 | 88 | 1018.7 |
| 20260504020353 | 11 | 115 | 0.0 | 0.0 | 0.00 | 0.00 | 0.00 | 87 | 1019.0 |
| 20260504015849 | 11 | 114 | 0.0 | 0.0 | 0.00 | 0.00 | 0.00 | 87 | 1018.8 |
| 20260504015346 | 11 | 111 | 0.0 | 0.0 | 0.00 | 0.00 | 0.00 | 86 | 1018.8 |
| 20260504014842 | 11 | 114 | 0.0 | 0.0 | 0.00 | 0.00 | 0.00 | 85 | 1018.7 |
| 20260504014338 | 11 | 110 | 0.0 | 0.0 | 0.00 | 0.00 | 0.00 | 85 | 1018.6 |
| 20260504013836 | 12 | 111 | 0.0 | 0.0 | 0.00 | 0.00 | 0.00 | 84 | 1018.5 |
| 20260504013334 | 12 | 114 | 0.0 | 0.0 | 0.00 | 0.00 | 0.00 | 84 | 1018.2 |
| 20260504012830 | 12 | 115 | 0.0 | 0.0 | 0.00 | 0.00 | 0.00 | 83 | 1018.4 |
| 20260504012328 | 12 | 111 | 0.0 | 0.0 | 0.00 | 0.00 | 0.00 | 82 | 1018.2 |
| 20260504011825 | 12 | 111 | 0.0 | 0.0 | 0.00 | 0.00 | 0.00 | 80 | 1018.4 |
| 20260504011321 | 12 | 107 | 0.0 | 0.0 | 0.00 | 0.00 | 0.00 | 80 | 1018.5 |
| 20260504010817 | 12 | 110 | 0.0 | 0.0 | 0.00 | 0.00 | 0.00 | 79 | 1018.3 |
| 20260504010313 | 13 | 111 | 0.0 | 0.0 | 0.00 | 0.00 | 0.00 | 79 | 1018.2 |
| 20260504005810 | 13 | 111 | 0.0 | 0.0 | 0.00 | 0.00 | 0.00 | 78 | 1018.1 |
| 20260504005307 | 13 | 112 | 0.0 | 0.0 | 0.00 | 0.00 | 0.00 | 77 | 1018.2 |
| 20260504004805 | 13 | 111 | 0.0 | 0.0 | 0.00 | 0.00 | 0.00 | 76 | 1017.9 |
| 20260504004302 | 14 | 111 | 0.0 | 0.0 | 0.00 | 0.00 | 0.00 | 75 | 1018.0 |
| 20260504003758 | 15 | 109 | 0.0 | 0.0 | 0.00 | 0.00 | 0.00 | 74 | 1018.1 |
| 20260504003255 | 15 | 111 | 0.0 | 0.0 | 0.00 | 0.00 | 0.00 | 73 | 1018.0 |
| 20260504002751 | 15 | 110 | 0.0 | 0.0 | 0.00 | 0.00 | 0.00 | 71 | 1018.1 |
| 20260504002249 | 15 | 111 | 0.0 | 0.0 | 0.00 | 0.00 | 0.00 | 70 | 1017.9 |
| 20260504001746 | 16 | 111 | 0.0 | 0.0 | 0.00 | 0.00 | 0.00 | 68 | 1018.1 |
| 20260504001243 | 16 | 110 | 0.0 | 0.0 | 0.00 | 0.00 | 0.00 | 68 | 1017.9 |
| 20260504000740 | 16 | 112 | 0.0 | 0.0 | 0.00 | 0.00 | 0.00 | 67 | 1017.9 |
| 20260504000237 | 17 | 111 | 0.0 | 0.0 | 0.00 | 0.00 | 0.00 | 65 | 1017.8 |
| 20260503235735 | 17 | 111 | 0.0 | 0.0 | 0.00 | 0.00 | 0.00 | 64 | 1018.0 |
| 20260503235232 | 17 | 111 | 0.0 | 0.0 | 0.00 | 0.00 | 0.00 | 62 | 1017.7 |